Location: Puerto Pe�asco
(31.3170°N, 113.5330°W)
Time: 15:16:37
(UTC-07:00)

OTV 5 (USA 277) - Visible Passes

Search period start: 09 December 2018 00:00
Search period end: 19 December 2018 00:00
Orbit: 341 x 347 km, 54.5° (Epoch: 03 December)

Date Brightness Start Highest point End Pass type
(mag) Time Alt. Az. Time Alt. Az. Time Alt. Az.
13 Dec ? 06:56:33 10° NNW 06:58:57 23° NE 07:01:19 10° E visible
15 Dec ? 06:09:48 15° N 06:11:22 22° NE 06:13:42 10° E visible
16 Dec ? 06:33:01 17° NW 06:35:03 76° SW 06:37:54 10° SE visible
17 Dec ? 05:24:52 17° ENE 05:24:52 17° ENE 05:26:04 10° E visible
17 Dec ? 06:56:44 10° W 06:58:30 15° WSW 07:00:16 10° SSW visible
18 Dec ? 05:48:15 44° SSE 05:48:15 44° SSE 05:50:20 10° SE visible
